Location: Beadle
(51.4667°N, 109.0000°W)
Time: 05:50:01
(UTC+00:00)

Envisat - Pass Details

Date: 26 January 2022
Orbit: 764 x 765 km, 98.2° (Epoch: 25 May)

Event Time Altitude Azimuth Distance (km) Brightness Sun altitude
Rises 14:15:23 0° 3° (N) 3,245 6.1 -7.5°
Reaches altitude 10° 14:18:38 10° 341° (NNW) 2,314 5.1 -7.0°
Maximum altitude 14:21:26 15° 308° (NW) 1,982 4.5 -6.6°
Drops below altitude 10° 14:24:13 10° 274° (W) 2,307 4.9 -6.2°
Sets 14:27:27 0° 252° (WSW) 3,229 5.8 -5.7°
